Location: Hemaruka
(51.7801°N, 111.0917°W)
Time: 07:26:25
(UTC+00:00)

NOAA 15 - Pass Details

Date: 10 December 2023
Orbit: 797 x 810 km, 98.6° (Epoch: 04 March)

Event Time Altitude Azimuth Distance (km) Brightness Sun altitude
Rises 14:19:20 0° 22° (NNE) 3,322 7.8 -8.8°
Reaches altitude 10° 14:22:01 10° 34° (NE) 2,385 7.2 -8.4°
Maximum altitude 14:26:31 28° 93° (E) 1,468 6.8 -7.8°
Drops below altitude 10° 14:30:58 10° 152° (SSE) 2,366 8.0 -7.2°
Sets 14:33:36 0° 164° (SSE) 3,290 8.5 -6.8°
